Weather Roundup
Issued by NWS Springfield, MO

Home | Current Version | Previous Version | Text Only | Print | Product List | Glossary On
Versions: 1 2 3 4 5 6 7 8 9 10 11 12 13 14 15 16 17 18 19 20 21 22 23 24 25 26 27 28 29 30 31 32 33 34 35 36 37 38 39 40 41 42 43 44 45 46 47 48 49 50
000
NZUS99 KSGF 292307
HRRSGF

HOURLY WEATHER
NATIONAL WEATHER SERVICE SPRINGFIELD MO
600 PM CDT TUE JUL 29 2014

......SGF CWA......

CITY           SKY/WX    TMP DP  RH WIND       PRES   REMARKS
SPRINGFIELD    CLOUDY    82  54  37 NW3       30.11F
JOPLIN         MOSUNNY   80  58  46 NW6       30.11F
WEST PLAINS    MOSUNNY   81  55  40 W7        30.12F
ROLLA          MOSUNNY   79  51  37 N5        30.09F
OSAGE BEACH      N/A     79  55  44 CALM      30.10F
BRANSON        PTSUNNY   86  54  32 N7        30.12F

......SURROUNDING SGF CWA......

CITY           SKY/WX    TMP DP  RH WIND       PRES   REMARKS
CHANUTE        PTSUNNY   76  58  53 NE5       30.12F
PARSONS        PTSUNNY   78  62  57 CALM      30.12F
COFFEYVILLE    MOSUNNY   83  59  44 NE8       30.09F
EMPORIA        MOSUNNY   77  54  44 SE6       30.12F
GROVE OK       PTSUNNY   82  61  47 N3        30.12F
ROGERS AR      CLOUDY    78  60  53 NW7       30.14F
SILOAM SPRINGS MOSUNNY   81  57  44 N7        30.13F
HARRISON AR    PTSUNNY   79  60  52 NW3       30.12F
NEAR YELLVILLE SUNNY     84  55  37 N7        30.10F

......KANSAS AND MISSOURI......

CITY           SKY/WX    TMP DP  RH WIND       PRES   REMARKS
KANSAS CTY INT MOSUNNY   81  58  45 N8        30.11F
DOWNTOWN KC    MOSUNNY   82  56  40 N6        30.09F
COLUMBIA       PTSUNNY   81  55  40 N9        30.10F
SEDALIA        SUNNY     81  58  45 N6        30.11F
ST JOSEPH      SUNNY     77  59  53 N5        30.11F
ST LOUIS       MOSUNNY   80  57  45 N7        30.10F
SPIRIT OF STL  MOSUNNY   79  54  41 NW6       30.08F
KIRKSVILLE     PTSUNNY   79  55  43 NW6       30.11F
WICHITA        MOSUNNY   87  61  41 E14       30.06F
TOPEKA         CLOUDY    84  56  38 CALM      30.10F
OLATHE         PTSUNNY   79  57  46 N7        30.10F

......TENNESSEE......

CITY           SKY/WX    TMP DP  RH WIND       PRES   REMARKS
MEMPHIS        MOSUNNY   76  54  46 N12       30.11S
NASHVILLE      MOSUNNY   79  51  37 N12       30.07F

......ARKANSAS.......

CITY           SKY/WX    TMP DP  RH WIND       PRES   REMARKS
FAYETTEVILLE   PTSUNNY   80  60  50 N8        30.12F
FT SMITH       CLOUDY    88  62  41 W5        30.07F
LITTLE ROCK    MOSUNNY   84  54  35 CALM      30.09F

......OKLAHOMA.......

CITY           SKY/WX    TMP DP  RH WIND       PRES   REMARKS
TULSA          MOSUNNY   90  61  37 VRB3      30.05F HX  90
PONCA CITY     CLOUDY    89  62  40 VRB7      30.05F
MCALESTER      MOSUNNY   88  64  44 E8        30.09F
OKLAHOMA CITY  CLOUDY    80  64  58 W10       30.09F

......IOWA............

CITY           SKY/WX    TMP DP  RH WIND       PRES   REMARKS
DES MOINES     MOSUNNY   80  54  40 N8        30.09F
QUAD CITIES    SUNNY     78  57  48 W9        30.04F

......ILLINOIS........

CITY           SKY/WX    TMP DP  RH WIND       PRES   REMARKS
QUINCY         SUNNY     77  55  46 NW8       30.09F
CHICAGO        MOSUNNY   77  55  46 W14       29.98F




USA.gov is the U.S. government's official web portal to all federal, state and local government web resources and services.